EW1647 Weather Reports


Display with metric or nautical units.
time (UTC)temp
F
wind
direction
speed
MPH
gust
MPH
rain 1hr
in
rain 24hr
in
rain mn
in
humidity
%
barometer
mb
20260905184544 59 309 1.0 4.0 0.00 0.00 0.00 84 1018.8
20260905183035 58 308 2.0 4.0 0.00 0.00 0.00 85 1018.9
20260905181533 58 309 0.0 3.0 0.00 0.00 0.00 86 1019.1
20260905180031 58 310 3.0 5.0 0.00 0.00 0.00 87 1019.1
20260905174534 57 315 1.0 4.0 0.00 0.00 0.00 87 1019.0
20260905173029 57 315 2.0 5.0 0.00 0.00 0.00 87 1018.9
20260905171534 57 313 2.0 4.0 0.00 0.00 0.00 86 1018.8
20260905170026 57 313 1.0 3.0 0.00 0.00 0.00 87 1018.8
20260905164523 57 313 1.0 4.0 0.00 0.00 0.00 87 1018.7
20260905163025 56 311 3.0 5.0 0.00 0.00 0.00 89 1018.6
20260905161517 56 300 0.0 2.0 0.00 0.00 0.00 90 1018.5
20260905160015 55 300 0.0 3.0 0.00 0.00 0.00 90 1018.5
20260905154513 55 300 1.0 3.0 0.00 0.01 0.00 90 1018.5
20260905153014 54 299 2.0 4.0 0.00 0.01 0.00 90 1018.6
20260905151511 54 190 0.0 4.0 0.00 0.01 0.00 90 1018.5
20260905150011 53 163 2.0 6.0 0.00 0.01 0.00 91 1018.5
20260905144510 53 126 2.0 5.0 0.00 0.03 0.00 91 1018.3
20260905143007 53 153 4.0 7.0 0.00 0.03 0.00 92 1018.1
20260905141506 52 150 2.0 6.0 0.00 0.03 0.00 92 1018.1
20260905140005 52 156 2.0 3.0 0.00 0.03 0.00 91 1017.9
20260905134507 52 156 1.0 2.0 0.00 0.03 0.00 91 1017.8
20260905133006 52 156 0.0 3.0 0.00 0.03 0.00 91 1017.8
20260905131503 52 155 2.0 5.0 0.00 0.03 0.00 91 1017.8
20260905130000 52 158 4.0 6.0 0.00 0.04 0.00 91 1017.7
20260905124600 52 163 1.0 6.0 0.00 0.04 0.00 91 1017.7
20260905123102 51 172 5.0 8.0 0.00 0.04 0.00 92 1017.6
20260905121556 51 147 2.0 3.0 0.00 0.04 0.00 91 1017.6
20260905120057 51 147 2.0 3.0 0.00 0.04 0.00 90 1017.6
20260905114605 51 150 1.0 3.0 0.00 0.04 0.00 90 1017.6
20260905113052 51 150 2.0 3.0 0.00 0.04 0.00 90 1017.5
20260905111621 51 150 3.0 5.0 0.00 0.04 0.00 89 1017.5
20260905110055 52 150 2.0 5.0 0.00 0.04 0.00 88 1017.4
20260905104607 52 150 2.0 3.0 0.00 0.04 0.00 88 1017.2
20260905103044 53 150 2.0 3.0 0.00 0.04 0.00 87 1017.2
20260905101549 53 150 0.0 1.0 0.00 0.04 0.00 87 1017.1
20260905100044 53 150 0.0 6.0 0.00 0.04 0.00 88 1017.0
20260905094635 54 162 4.0 7.0 0.00 0.04 0.00 87 1017.0
20260905093040 54 151 6.0 9.0 0.00 0.04 0.00 88 1017.1
20260905091537 53 154 3.0 7.0 0.00 0.04 0.00 88 1017.0
20260905090037 54 129 2.0 7.0 0.00 0.04 0.00 88 1016.9
20260905084544 54 162 5.0 9.0 0.00 0.04 0.00 89 1016.9
20260905083030 53 150 3.0 6.0 0.00 0.04 0.00 89 1016.8
20260905081530 53 159 3.0 6.0 0.00 0.04 0.00 89 1016.8
20260905080029 53 146 4.0 7.0 0.00 0.04 0.00 88 1016.8
20260905074527 54 143 3.0 5.0 0.00 0.05 0.00 87 1016.8
20260905073025 54 144 3.0 5.0 0.00 0.05 0.00 87 1016.7
20260905071523 54 148 3.0 6.0 0.00 0.05 0.00 87 1016.7
20260905070021 55 148 2.0 4.0 0.00 0.05 0.00 85 1016.6
20260905064518 55 148 0.0 3.0 0.00 0.06 0.05 86 1016.4
20260905063017 55 148 2.0 3.0 0.00 0.06 0.05 85 1016.3
20260905061519 56 148 2.0 7.0 0.00 0.06 0.05 84 1016.2
20260905060019 56 113 2.0 3.0 0.00 0.06 0.05 83 1016.1
20260905054521 57 113 1.0 3.0 0.00 0.06 0.05 82 1016.0
20260905053014 57 113 2.0 3.0 0.00 0.06 0.05 82 1016.0
20260905051527 57 112 2.0 4.0 0.00 0.06 0.05 81 1016.1
20260905050013 58 105 3.0 4.0 0.00 0.06 0.05 80 1016.2
20260905044511 58 96 0.0 0.0 0.00 0.06 0.05 79 1016.1
20260905043017 59 96 0.0 0.0 0.00 0.06 0.05 77 1016.2
20260905041513 59 96 0.0 0.0 0.00 0.06 0.05 76 1016.1
20260905040010 60 96 0.0 2.0 0.00 0.06 0.05 75 1016.1
20260905034511 60 136 1.0 4.0 0.00 0.06 0.05 74 1015.9
20260905033007 60 138 3.0 5.0 0.00 0.06 0.05 74 1015.8
20260905031513 61 142 3.0 7.0 0.00 0.06 0.05 73 1015.6
20260905030005 61 146 4.0 8.0 0.00 0.06 0.05 71 1015.6
20260905024503 62 146 1.0 6.0 0.00 0.10 0.05 70 1015.4
20260905023007 62 170 4.0 9.0 0.00 0.10 0.05 70 1015.4
20260905021501 63 147 3.0 7.0 0.00 0.10 0.05 68 1015.5
20260905020104 64 126 4.0 10.0 0.00 0.10 0.05 66 1015.4
20260905014600 66 111 5.0 10.0 0.00 0.12 0.05 64 1015.4
20260905013117 67 111 4.0 7.0 0.00 0.12 0.05 60 1015.2
20260905011606 67 60 5.0 8.0 0.00 0.12 0.05 58 1015.0
20260905010058 68 122 0.0 6.0 0.00 0.12 0.05 59 1014.6
20260905004554 68 150 4.0 13.0 0.00 0.12 0.05 58 1014.5
20260905003050 68 107 5.0 14.0 0.00 0.12 0.05 60 1014.5
20260905001551 68 100 7.0 13.0 0.00 0.12 0.05 60 1014.4
20260905000048 70 134 3.0 14.0 0.00 0.12 0.05 60 1014.5
20260904234546 71 31 0.0 3.0 0.00 0.12 0.05 59 1014.4
20260904233047 72 31 2.0 5.0 0.00 0.12 0.05 57 1014.5
20260904231545 72 15 4.0 7.0 0.00 0.12 0.05 59 1014.5
20260904230059 72 14 2.0 6.0 0.00 0.12 0.05 62 1014.4
20260904224543 71 355 2.0 8.0 0.00 0.12 0.05 63 1014.2
20260904223053 71 19 3.0 5.0 0.00 0.12 0.05 63 1014.2
20260904221535 70 17 2.0 10.0 0.00 0.12 0.05 64 1014.3
20260904220040 70 23 5.0 9.0 0.00 0.12 0.05 64 1014.2
20260904214530 70 355 4.0 6.0 0.00 0.12 0.05 66 1014.0
20260904213033 69 5 3.0 6.0 0.00 0.12 0.05 65 1014.1
20260904211524 68 343 1.0 5.0 0.00 0.12 0.05 70 1014.0
20260904210021 66 345 2.0 4.0 0.00 0.12 0.05 72 1013.9
20260904204516 65 346 2.0 4.0 0.00 0.12 0.05 74 1014.0
20260904203015 64 342 2.0 4.0 0.00 0.12 0.05 78 1014.1
20260904201508 62 342 1.0 5.0 0.00 0.12 0.05 85 1014.2
20260904200015 61 317 1.0 3.0 0.00 0.12 0.05 87 1014.2
20260904194604 60 311 1.0 4.0 0.00 0.12 0.05 88 1014.2
20260904193058 59 308 2.0 4.0 0.00 0.12 0.05 89 1014.2
20260904191556 59 306 1.0 4.0 0.00 0.12 0.05 92 1014.2
20260904190055 59 312 2.0 5.0 0.00 0.12 0.05 94 1014.3